Date String (YYYY-MM-DD hh:mm:ss) UTC,Instrument flags,absolute air pressure of the measurement (hPa),sample flow rate (lpm),inlet stack bypass flow (lpm),air temperature of the measurement (°C),ambient temperature measured by the external sensor (°C),aerosol sample conditioner tube jacket temperature (°C),OPC LED temperature (°C),internal box temperature (°C),relative humidity of the measurement (%),span deviation,mass concentration of particles derived from Lorenz-Mie calculation of OPC scattering (μg/m³),mass concentration of particles derived from Lorenz-Mie calculation of OPC scattering (μg/m³),mass concentration of particles derived from Lorenz-Mie calculation of OPC scattering (μg/m³)
DateTimeUTC,F1_M11,P_M11,Q1_M11,Q2_M11,T1_M11,T2_M11,T3_M11,T4_M11,T5_M11,U1_M11,ZSPAN_M11,X2_M11,X0_M11,X1_M11
2024-03-10 20:00:00,SystemResetWarning,0827.7,5.00,000.00,023.1,022.7,000.0,031.3,024.9,07.2,0000.0,0003.87,0014.10,0002.56
2024-03-10 20:01:00,SystemResetWarning,0827.7,5.00,000.00,023.1,022.7,000.0,031.3,024.9,07.2,0000.0,0003.80,0013.83,0002.54
2024-03-10 20:02:00,SystemResetWarning,0827.7,5.00,000.00,023.2,022.7,000.0,031.4,025.0,07.2,0000.0,0003.73,0013.56,0002.52
2024-03-10 20:03:00,SystemResetWarning,0827.7,5.00,000.00,023.2,022.7,000.0,031.4,025.0,06.9,0000.0,0003.66,0013.83,0002.49
2024-03-10 20:04:00,SystemResetWarning,0827.7,5.00,000.00,023.2,022.7,000.0,031.4,025.0,07.0,0000.0,0003.62,0013.04,0002.45
2024-03-10 20:05:00,SystemResetWarning,0827.7,5.00,000.00,023.2,022.8,000.0,031.4,025.0,06.9,0000.0,0003.63,0012.30,0002.41
2024-03-10 20:06:00,SystemResetWarning,0827.6,5.00,000.00,023.2,022.8,000.0,031.4,025.0,07.1,0000.0,0003.61,0011.42,0002.39
2024-03-10 20:07:00,SystemResetWarning,0827.6,4.99,000.00,023.3,022.8,000.0,031.4,025.0,07.1,0000.0,0003.56,0011.44,0002.35
2024-03-10 20:08:00,SystemResetWarning,0827.6,4.99,000.00,023.3,022.8,000.0,031.5,025.0,06.9,0000.0,0003.50,0011.30,0002.31
2024-03-10 20:09:00,SystemResetWarning,0827.5,5.00,000.00,023.3,022.8,000.0,031.5,025.1,07.1,0000.0,0003.45,0012.09,0002.27
2024-03-10 20:10:00,SystemResetWarning,0827.5,5.01,000.00,023.3,022.8,000.0,031.5,025.1,06.9,0000.0,0003.50,0012.23,0002.26
2024-03-10 20:11:00,SystemResetWarning,0827.5,5.01,000.00,023.3,022.8,000.0,031.5,025.1,07.2,0000.0,0003.53,0012.30,0002.24
2024-03-10 20:12:00,SystemResetWarning,0827.5,5.00,000.00,023.3,022.9,000.0,031.5,025.1,07.7,0000.0,0003.52,0011.86,0002.21
2024-03-10 20:13:00,SystemResetWarning,0827.5,5.00,000.00,023.4,022.9,000.0,031.5,025.1,07.8,0000.0,0003.58,0011.80,0002.19
2024-03-10 20:14:00,SystemResetWarning,0827.5,5.00,000.00,023.4,022.9,000.0,031.6,025.1,07.9,0000.0,0003.64,0011.77,0002.21
2024-03-10 20:15:00,SystemResetWarning,0827.8,5.00,000.00,023.4,022.9,000.0,031.6,025.1,07.8,0000.0,0003.65,0012.03,0002.21
2024-03-10 20:16:00,SystemResetWarning,0827.7,5.00,000.00,023.4,022.9,000.0,031.6,025.2,07.8,0000.0,0003.67,0012.68,0002.21
2024-03-10 20:17:00,SystemResetWarning,0827.4,5.00,000.00,023.4,022.9,000.0,031.6,025.2,07.6,0000.0,0003.71,0013.54,0002.22
2024-03-10 20:18:00,SystemResetWarning,0827.4,5.00,000.00,023.4,023.0,000.0,031.6,025.2,07.3,0000.0,0003.74,0013.31,0002.23
2024-03-10 20:19:00,SystemResetWarning,0827.4,5.01,000.00,023.5,023.0,000.0,031.7,025.2,07.2,0000.0,0003.71,0012.62,0002.25
2024-03-10 20:20:00,SystemResetWarning,0827.4,5.01,000.00,023.5,023.0,000.0,031.7,025.2,07.6,0000.0,0003.65,0011.27,0002.25
2024-03-10 20:21:00,SystemResetWarning,0827.4,4.99,000.00,023.5,023.0,000.0,031.7,025.2,07.5,0000.0,0003.63,0010.64,0002.24
2024-03-10 20:22:00,SystemResetWarning,0827.4,4.99,000.00,023.5,023.0,000.0,031.7,025.3,07.4,0000.0,0003.63,0010.56,0002.26
2024-03-10 20:23:00,SystemResetWarning,0827.4,5.00,000.00,023.5,023.0,000.0,031.7,025.3,07.4,0000.0,0003.65,0010.48,0002.27
2024-03-10 20:24:00,SystemResetWarning,0827.4,5.02,000.00,023.5,023.1,000.0,031.7,025.3,07.2,0000.0,0003.63,0010.42,0002.26
2024-03-10 20:25:00,SystemResetWarning,0827.3,5.00,000.00,023.5,023.1,000.0,031.8,025.3,07.1,0000.0,0003.63,0010.22,0002.25
2024-03-10 20:26:00,SystemResetWarning,0827.4,5.00,000.00,023.6,023.1,000.0,031.8,025.3,07.2,0000.0,0003.60,0010.16,0002.22
2024-03-10 20:27:00,SystemResetWarning,0827.3,5.00,000.00,023.6,023.1,000.0,031.8,025.4,07.4,0000.0,0003.61,0010.46,0002.23
2024-03-10 20:28:00,SystemResetWarning,0827.3,5.00,000.00,023.6,023.1,000.0,031.8,025.4,07.3,0000.0,0003.57,0009.38,0002.22
2024-03-10 20:29:00,SystemResetWarning,0827.3,5.00,000.00,023.6,023.1,000.0,031.8,025.4,07.1,0000.0,0003.54,0009.81,0002.23
2024-03-10 20:30:00,SystemResetWarning,0827.3,5.00,000.00,023.6,023.1,000.0,031.8,025.4,06.9,0000.0,0003.60,0010.59,0002.28
2024-03-10 20:31:00,SystemResetWarning,0827.3,5.00,000.00,023.6,023.2,000.0,031.9,025.5,06.9,0000.0,0003.69,0010.87,0002.35
2024-03-10 20:32:00,SystemResetWarning,0827.2,5.00,000.00,023.7,023.2,000.0,031.9,025.5,06.8,0000.0,0003.76,0011.12,0002.42
2024-03-10 20:33:00,SystemResetWarning,0827.2,5.00,000.00,023.7,023.2,000.0,031.9,025.5,07.0,0000.0,0003.81,0011.98,0002.47
2024-03-10 20:34:00,SystemResetWarning,0827.2,5.00,000.00,023.7,023.2,000.0,031.9,025.5,06.6,0000.0,0003.82,0012.17,0002.49
2024-03-10 20:35:00,SystemResetWarning,0827.2,5.01,000.00,023.7,023.2,000.0,031.9,025.5,06.8,0000.0,0003.83,0012.23,0002.53
2024-03-10 20:36:00,SystemResetWarning,0827.1,5.00,000.00,023.7,023.2,000.0,031.9,025.5,07.1,0000.0,0003.80,0012.13,0002.57
2024-03-10 20:37:00,SystemResetWarning,0827.2,4.99,000.00,023.7,023.3,000.0,032.0,025.5,07.1,0000.0,0003.85,0011.81,0002.62
2024-03-10 20:38:00,SystemResetWarning,0827.1,4.99,000.00,023.8,023.3,000.0,032.0,025.5,06.7,0000.0,0003.88,0011.35,0002.66
2024-03-10 20:39:00,SystemResetWarning,0827.2,5.00,000.00,023.8,023.3,000.0,032.0,025.5,06.3,0000.0,0004.00,0012.35,0002.70
2024-03-10 20:40:00,SystemResetWarning,0827.1,5.00,000.00,023.8,023.3,000.0,032.0,025.5,06.5,0000.0,0004.09,0012.48,0002.74
2024-03-10 20:41:00,SystemResetWarning,0827.1,5.00,000.00,023.8,023.3,000.0,032.0,025.6,06.8,0000.0,0004.13,0011.96,0002.73
2024-03-10 20:42:00,SystemResetWarning,0827.1,5.01,000.00,023.8,023.3,000.0,032.1,025.6,06.5,0000.0,0004.15,0012.89,0002.69
2024-03-10 20:43:00,SystemResetWarning,0827.1,5.00,000.00,023.8,023.3,000.0,032.1,025.6,06.5,0000.0,0004.13,0013.21,0002.65
2024-03-10 20:44:00,SystemResetWarning,0827.2,4.99,000.00,023.8,023.3,000.0,032.1,025.6,06.3,0000.0,0004.07,0012.73,0002.63
2024-03-10 20:45:00,SystemResetWarning,0827.1,4.99,000.00,023.9,023.3,000.0,032.1,025.6,06.4,0000.0,0004.08,0012.42,0002.65
2024-03-10 20:46:00,SystemResetWarning,0827.1,5.00,000.00,023.9,023.4,000.0,032.1,025.6,06.7,0000.0,0004.09,0013.00,0002.67
2024-03-10 20:47:00,SystemResetWarning,0827.1,5.01,000.00,023.9,023.4,000.0,032.1,025.6,06.5,0000.0,0004.09,0013.08,0002.68
2024-03-10 20:48:00,SystemResetWarning,0827.1,5.01,000.00,023.9,023.4,000.0,032.1,025.6,06.3,0000.0,0004.11,0013.89,0002.68
2024-03-10 20:49:00,SystemResetWarning,0827.1,5.00,000.00,023.9,023.4,000.0,032.2,025.7,06.7,0000.0,0004.07,0013.47,0002.66
2024-03-10 20:50:00,SystemResetWarning,0827.1,5.00,000.00,023.9,023.4,000.0,032.2,025.7,07.1,0000.0,0003.98,0012.40,0002.64
2024-03-10 20:51:00,SystemResetWarning,0827.0,4.99,000.00,024.0,023.4,000.0,032.2,025.7,07.1,0000.0,0003.90,0011.74,0002.62
2024-03-10 20:52:00,SystemResetWarning,0827.0,5.00,000.00,024.0,023.4,000.0,032.2,025.7,07.0,0000.0,0003.89,0011.94,0002.62
2024-03-10 20:53:00,SystemResetWarning,0827.0,5.00,000.00,024.0,023.5,000.0,032.2,025.7,07.2,0000.0,0003.86,0011.21,0002.62
2024-03-10 20:54:00,SystemResetWarning,0827.1,5.01,000.00,024.0,023.5,000.0,032.2,025.7,07.0,0000.0,0003.87,0010.98,0002.62
2024-03-10 20:55:00,SystemResetWarning,0827.1,5.01,000.00,024.0,023.5,000.0,032.3,025.7,06.8,0000.0,0003.87,0010.65,0002.61
2024-03-10 20:56:00,SystemResetWarning,0827.1,5.01,000.00,024.0,023.5,000.0,032.3,025.8,06.8,0000.0,0003.92,0010.63,0002.58
2024-03-10 20:57:00,SystemResetWarning,0827.0,5.00,000.00,024.0,023.5,000.0,032.3,025.8,06.8,0000.0,0003.97,0010.54,0002.56
2024-03-10 20:58:00,SystemResetWarning,0827.1,5.00,000.00,024.0,023.5,000.0,032.3,025.8,06.8,0000.0,0003.97,0010.58,0002.54
2024-03-10 20:59:00,SystemResetWarning,0827.0,5.00,000.00,024.0,023.5,000.0,032.3,025.9,06.9,0000.0,0003.99,0010.23,0002.54
